{"data":{"norad_id":64062,"intl_designator":"2025-106A","name":"CHINASAT 3B","alt_names":[],"object_type":"PAYLOAD","status":"ACTIVE","operator":null,"country":"PRC","launch_date":"2025-05-20","launch_site_code":"WSC","launch_vehicle":null,"mission":null,"orbit_class":"UNKNOWN","rcs_meters":null,"size_class":null,"mass_kg":null,"dimensions":null,"purposes":["comms"],"wikipedia_slug":null,"has_3d_model":false,"image_url":null,"decayed_at":null,"tle_current":{"epoch":"2026-05-25T02:49:43.078080Z","epoch_age_seconds":65198,"freshness":"FRESH","line1":"1 64062U 25106A   26145.11785970 -.00000047  00000+0  00000+0 0  9998","line2":"2 64062   0.0392  92.0520 0002272   6.0997 354.3121  1.00272240  3837","mean_motion":1.0027224,"eccentricity":0.0002272,"inclination_deg":0.0392,"raan_deg":92.052,"arg_perigee_deg":6.0997,"mean_anomaly_deg":354.3121,"bstar":0,"rev_number":383,"period_min":1436.090387529,"perigee_km":35776.887610534,"apogee_km":35796.047206778,"semimajor_km":42164.604408656,"source":"CELESTRAK","updated_at":"2026-05-25T13:38:14.153860Z"}}}